Regional Weather Roundup
Issued by NWS

Home | Current Version | Previous Version | Graphics & Text | Print | Product List | Glossary On
Versions: 1 2 3 4 5 6 7 8 9 10 11 12 13 14 15 16 17 18 19 20 21 22 23 24 25 26 27 28 29 30 31 32 33 34 35 36 37 38 39 40 41 42 43 44 45 46 47 48 49 50
000
ASUS45 KCYS 022310
RWRWY

WYOMING REGIONAL WEATHER ROUNDUP
NATIONAL WEATHER SERVICE CHEYENNE WY
400 PM MST MON MAR 02 2015

NOTE:  "FAIR" INDICATES FEW OR NO CLOUDS BELOW 12,000 FEET
WITH NO SIGNIFICANT WEATHER AND/OR OBSTRUCTIONS TO VISIBILITY.

WYZ001-030000-
YELLOWSTONE NATIONAL PARK

CITY           SKY/WX    TMP DP  RH WIND       PRES   REMARKS
LK YELLOWSTONE   N/A     28   2  32 CALM      29.64F
W YELLOWSTONE  NOT AVBL

$$
WYZ002>013-054>058-071-098>099-030000-
NORTHERN WYOMING

CITY           SKY/WX    TMP DP  RH WIND       PRES   REMARKS
JACKSON        CLOUDY    27  18  69 CALM      29.64F
CODY           PTSUNNY   37  12  35 E8        29.68S WCI  31
GREYBULL       FAIR      41  13  31 W5        29.69S
WORLAND        FAIR      37  17  44 N5        29.67F WCI  33
SHERIDAN       FAIR      42  10  27 W6        29.70F
BUFFALO        FAIR      37  12  35 NW6       29.70F WCI  32
GILLETTE       FAIR      40  14  34 E10       29.69F WCI  33
HULETT         FAIR      41  16  36 N7        29.71F
NEWCASTLE      FAIR      39  19  45 CALM      29.70F

$$
WYZ014>020-022>026-101>103-030000-
CENTRAL WYOMING

CITY           SKY/WX    TMP DP  RH WIND       PRES   REMARKS
BIG PINEY      CLOUDY    31  19  61 SE3       29.64S
PINEDALE       CLOUDY    30  19  64 CALM      29.63F
DUBOIS         CLOUDY    28  18  64 SE13      29.59F WCI  18
LANDER         CLOUDY    26  16  65 S5        29.64F WCI  20
RIVERTON       CLOUDY    24  14  65 E5        29.66F WCI  18
CASPER         SNOW      32  31  96 E5        29.64F VSB 1/4 WCI  27
DOUGLAS        SNOW      32  31  96 SE5       29.68F VSB 1/2 WCI  27

$$
WYZ021-027>030-104>119-030000-
SOUTHERN WYOMING

CITY           SKY/WX    TMP DP  RH WIND       PRES   REMARKS
EVANSTON       FLURRIES  33  27  78 S6        29.61F WCI  28
KEMMERER       FLURRIES  30  27  86 SE6       29.64R WCI  24
FORT BRIDGER   CLOUDY    30  27  90 CALM      29.67S
ROCK SPRINGS   LGT SNOW  31  30  96 W7        29.64R VSB 1   WCI  24
DIXON          CLOUDY    43  35  72 S14G22    29.61F
RAWLINS        MIX PCPN  32  29  88 CALM      29.59F FOG
SARATOGA       CLOUDY    37  34  87 MISG      29.60F
LARAMIE        FAIR      43  31  62 SW17      29.60F
CHEYENNE       FAIR      37  24  59 S9        29.64F WCI  30
TORRINGTON     FAIR      47  25  42 SE13      29.65F
PINE BLUFFS    FAIR      41  27  56 S13       29.66F

$$


USA.gov is the U.S. government's official web portal to all federal, state and local government web resources and services.